This demonstration page uses our WeatherBlox Daily Observations layout. Learn more.

Left ArrowRight Arrow

Hourly Observations for September 8, 2020

Temp ( °F °C ) Dew Point ( °F °C ) Humidity (%) Winds ( mph kmh ) Pressure ( in mb ) Visibility ( mi km ) Precip ( " mm )
12:59 am 00:59 Mostly Cloudy 76 24.4 62 16.7 62 62 NE 7 11 30.06 1018 10 16 0.00 0.00
1:59 am 01:59 Partly Cloudy 75 23.9 67 19.4 76 76 NE 7 11 30.04 1017 10 16 0.00 0.00
2:59 am 02:59 Mostly Clear 75 23.9 69 20.6 82 82 NE 6 9 30.03 1017 10 16 0.00 0.00
3:17 am 03:17 Mostly Cloudy 76 24.4 70 21.1 82 82 NE 6 9 30.04 1017 10 16 0.00 0.00
3:59 am 03:59 Mostly Cloudy 76 24.4 71 21.7 85 85 ENE 8 13 30.04 1017 10 16 0.00 0.00
4:59 am 04:59 Partly Cloudy 76 24.4 71 21.7 85 85 ENE 8 13 30.04 1017 10 16 0.00 0.00
5:59 am 05:59 Partly Cloudy 77 25 72 22.2 85 85 NNE 7 11 30.05 1018 10 16 0.00 0.00
6:59 am 06:59 Mostly Cloudy 77 25 72 22.2 85 85 NE 9 15 30.06 1018 9 14 0.00 0.00
7:59 am 07:59 Mostly Cloudy 78 25.6 73 22.8 85 85 NE 13 20 30.06 1018 9 14 0.00 0.00
8:59 am 08:59 Mostly Cloudy 80 26.7 73 22.8 79 79 ENE 9 15 30.09 1019 9 14 0.00 0.00
9:59 am 09:59 Mostly Cloudy 80 26.7 73 22.8 79 79 ENE 14 22 30.11 1020 9 14 0.00 0.00
10:05 am 10:05 Mostly Cloudy 80 26.7 73 22.8 79 79 ENE 14 22 30.12 1020 9 14 0.00 0.00
10:27 am 10:27 Mostly Cloudy 80 26.7 73 22.8 79 79 ENE 14 22 30.12 1020 9 14 0.00 0.00
10:59 am 10:59 Mostly Cloudy 81 27.2 73 22.8 77 77 ENE 10 17 30.12 1020 9 14 0.00 0.00
11:03 am 11:03 Mostly Cloudy 81 27.2 73 22.8 77 77 ENE 13 20 30.13 1020 9 14 0.00 0.00
11:59 am 11:59 Mostly Cloudy 82 27.8 73 22.8 74 74 E 15 24 30.12 1020 9 14 0.00 0.00
12:59 pm 12:59 Mostly Cloudy 82 27.8 73 22.8 74 74 ENE 15 24 30.13 1020 9 14 0.00 0.00
1:59 pm 13:59 Mostly Cloudy 83 28.3 73 22.8 72 72 ENE 13 20 30.12 1020 10 16 0.00 0.00
2:59 pm 14:59 Mostly Cloudy 81 27.2 72 22.2 74 74 ENE 13 20 30.12 1020 9 14 0.00 0.00
3:59 pm 15:59 Cloudy 80 26.7 73 22.8 79 79 ENE 12 19 30.10 1019 8 13 0.00 0.00
4:10 pm 16:10 Cloudy 80 26.7 72 22.2 76 76 E 10 17 30.10 1019 8 13 0.00 0.00
4:59 pm 16:59 Cloudy 80 26.7 73 22.8 79 79 E 13 20 30.11 1020 8 13 0.00 0.00
5:59 pm 17:59 Cloudy 80 26.7 73 22.8 79 79 ENE 13 20 30.11 1020 8 13 0.00 0.00
6:59 pm 18:59 Cloudy 79 26.1 73 22.8 82 82 ENE 14 22 30.10 1019 8 13 0.00 0.00
7:59 pm 19:59 Cloudy 79 26.1 73 22.8 82 82 E 12 19 30.11 1020 9 14 0.00 0.00
8:59 pm 20:59 Cloudy 78 25.6 73 22.8 85 85 ENE 9 15 30.11 1020 9 14 0.00 0.00
9:59 pm 21:59 Cloudy 78 25.6 72 22.2 82 82 ENE 13 20 30.11 1020 9 14 0.00 0.00
10:59 pm 22:59 Cloudy 78 25.6 73 22.8 85 85 ENE 13 20 30.12 1020 9 14 0.00 0.00
11:29 pm 23:29 Cloudy 78 25.6 73 22.8 85 85 ENE 15 24 30.13 1020 9 14 0.00 0.00
11:59 pm 23:59 Cloudy 78 25.6 73 22.8 85 85 E 14 22 30.12 1020 9 14 0.00 0.00

Powered by AerisWeather